Little Lake Harris Weather Center

Moon Phase Calendar



Little Lake Harris Water Level
Online Cameras

 


      

Current Conditions in Yalaha
5/27/2022 12:12:24 AM

77°F
Feels Like 78
Clouds
Humidity
81%
Pressure
30.06"
Wind
3.4 mph (ENE)
Dew Point
71°F
UV Index
0/10 (Low)
Visibility
6 mi

Hourly Forecast

Date & Time Fri, May 27
12:00 AM
Fri, May 27
1:00 AM
Fri, May 27
2:00 AM
Fri, May 27
3:00 AM
Fri, May 27
4:00 AM
Fri, May 27
5:00 AM
Fri, May 27
6:00 AM
Fri, May 27
7:00 AM
Fri, May 27
8:00 AM
Fri, May 27
9:00 AM
Fri, May 27
10:00 AM
Fri, May 27
11:00 AM
Fri, May 27
12:00 PM
Fri, May 27
1:00 PM
Fri, May 27
2:00 PM
Fri, May 27
3:00 PM
Fri, May 27
4:00 PM
Fri, May 27
5:00 PM
Fri, May 27
6:00 PM
Fri, May 27
7:00 PM
Fri, May 27
8:00 PM
Fri, May 27
9:00 PM
Fri, May 27
10:00 PM
Fri, May 27
11:00 PM
Sat, May 28
12:00 AM
Sat, May 28
1:00 AM
Sat, May 28
2:00 AM
Sat, May 28
3:00 AM
Sat, May 28
4:00 AM
Sat, May 28
5:00 AM
Sat, May 28
6:00 AM
Sat, May 28
7:00 AM
Sat, May 28
8:00 AM
Sat, May 28
9:00 AM
Sat, May 28
10:00 AM
Sat, May 28
11:00 AM
Sat, May 28
12:00 PM
Sat, May 28
1:00 PM
Sat, May 28
2:00 PM
Sat, May 28
3:00 PM
Sat, May 28
4:00 PM
Sat, May 28
5:00 PM
Sat, May 28
6:00 PM
Sat, May 28
7:00 PM
Sat, May 28
8:00 PM
Sat, May 28
9:00 PM
Sat, May 28
10:00 PM
Sat, May 28
11:00 PM
Condition
Clouds

Clouds

Clouds

Clouds

Clouds

Clouds

Clouds

Clouds

Clouds

Rain

Rain

Rain

Rain

Clouds

Clouds

Clouds

Clouds

Clouds

Clouds

Clouds

Clouds

Clear

Clear

Clear

Rain

Rain

Clear

Clear

Rain

Rain

Clear

Clear

Clear

Clear

Rain

Rain

Rain

Rain

Clouds

Clouds

Clouds

Clouds

Clouds

Clouds

Rain

Rain

Clouds

Clouds
Temperature 77°F77°F77°F76°F75°F75°F75°F74°F77°F80°F82°F84°F87°F90°F92°F91°F89°F87°F87°F86°F82°F79°F78°F76°F75°F74°F74°F73°F73°F72°F72°F72°F75°F78°F81°F84°F86°F87°F88°F89°F89°F86°F84°F85°F82°F78°F75°F74°F
Feels Like 78°F78°F78°F77°F76°F76°F75°F75°F78°F83°F86°F88°F90°F91°F93°F92°F90°F88°F88°F88°F84°F79°F78°F77°F76°F75°F75°F74°F74°F73°F73°F73°F76°F79°F84°F86°F88°F89°F90°F91°F90°F88°F87°F86°F82°F78°F75°F74°F
Cloudiness 75%80%85%90%95%100%100%99%99%33%19%19%22%36%40%90%95%94%90%76%64%0%0%0%0%0%0%0%0%0%0%0%0%0%0%4%14%19%22%56%73%81%86%85%80%73%37%24%
Visibility 6 mi6 mi6 mi6 mi6 mi6 mi6 mi6 mi6 mi6 mi6 mi6 mi6 mi6 mi6 mi6 mi6 mi6 mi6 mi6 mi6 mi6 mi6 mi6 mi6 mi6 mi6 mi6 mi6 mi6 mi6 mi6 mi6 mi6 mi6 mi6 mi4 mi6 mi6 mi6 mi6 mi6 mi6 mi6 mi6 mi6 mi6 mi6 mi
Precipitation 6%6%7%0%0%0%0%0%4%35%39%78%74%74%74%0%0%0%3%0%0%9%17%17%26%23%23%9%32%40%20%17%12%14%26%34%41%45%41%0%0%0%0%0%27%51%53%53%
Humidity 81%79%79%78%79%78%78%79%73%67%64%60%53%42%37%37%42%46%47%51%56%62%69%74%79%82%83%85%86%88%89%88%81%73%64%57%53%51%47%44%44%54%56%49%48%55%61%65%
Dew Point 71°F70°F70°F69°F68°F68°F67°F67°F68°F68°F69°F69°F67°F64°F62°F62°F63°F64°F64°F66°F65°F65°F67°F67°F68°F68°F68°F68°F68°F68°F68°F69°F69°F69°F68°F67°F66°F66°F66°F65°F64°F67°F66°F64°F60°F60°F60°F61°F
Pressure 30.06"30.06"30.03"30.03"30"29.97"29.97"30"30"30.03"30"30"30"29.97"29.94"29.91"29.91"29.88"29.88"29.91"29.91"29.91"29.94"29.94"29.94"29.94"29.91"29.91"29.91"29.91"29.91"29.94"29.94"29.97"29.94"29.94"29.94"29.94"29.91"29.88"29.88"29.85"29.85"29.85"29.88"29.91"29.91"29.94"
Wind Speed 8.3 mph10.8 mph9.4 mph7.9 mph6.3 mph5.8 mph5.8 mph6 mph7.5 mph9.4 mph11.1 mph12.3 mph11.4 mph11.2 mph10.9 mph10.4 mph9.1 mph10.7 mph11.8 mph14.2 mph13 mph12 mph9.6 mph6.4 mph5.1 mph5 mph5.3 mph5.1 mph5 mph4.9 mph4.3 mph4 mph3.7 mph4.4 mph5.3 mph5.4 mph5.7 mph6.2 mph6.4 mph5.4 mph5.4 mph8.3 mph7.9 mph8.5 mph6.9 mph7.3 mph6.3 mph3.3 mph
Wind
Direction
145°
SE
150°
SSE
165°
SSE
174°
S
168°
SSE
167°
SSE
175°
S
173°
S
183°
S
192°
SSW
206°
SSW
203°
SSW
203°
SSW
196°
SSW
193°
SSW
203°
SSW
234°
SW
264°
W
266°
W
271°
W
271°
W
268°
W
264°
W
253°
WSW
225°
SW
219°
SW
239°
WSW
240°
WSW
235°
SW
240°
WSW
249°
WSW
234°
SW
229°
SW
243°
WSW
246°
WSW
248°
WSW
236°
SW
212°
SSW
204°
SSW
224°
SW
209°
SSW
181°
S
202°
SSW
249°
WSW
245°
WSW
251°
WSW
254°
WSW
231°
SW

Daily Forecast

Date High Low Precip. Humidity
Today
May 27

Rain
92 °F
74 °F
78%
42%
Saturday
May 28

Rain
88 °F
72 °F
53%
51%
Sunday
May 29

Rain
92 °F
70 °F
100%
42%
Monday
May 30

Rain
92 °F
72 °F
100%
42%
Tuesday
May 31

Rain
89 °F
73 °F
79%
44%
Wednesday
Jun 1

Clouds
89 °F
71 °F
6%
42%
Thursday
Jun 2

Clear
92 °F
71 °F
0%
37%
Friday
Jun 3

Clear
95 °F
71 °F
4%
33%
Saturday
Jun 4

Rain
95 °F
74 °F
60%
36%
Sunday
Jun 5

Rain
96 °F
74 °F
40%
38%
Monday
Jun 6

Clear
97 °F
75 °F
10%
37%
Tuesday
Jun 7

Rain
96 °F
75 °F
89%
37%
Wednesday
Jun 8

Rain
94 °F
74 °F
100%
44%
Thursday
Jun 9

Rain
93 °F
73 °F
100%
43%
Friday
Jun 10

Rain
94 °F
72 °F
99%
42%
Saturday
Jun 11

Rain
92 °F
74 °F
92%
44%

Temperature 8-14 Day Outlook



Precipitation 8-14 Day Outlook




Quick Links
Little Lake Harris News
Little Lake Harris Photos
Little Lake Harris Videos




About Us
Contact Us
Site Map
Search Site
Advertise With Us
   
LittleHarris.USLakes.info
THE LITTLE LAKE HARRIS WEBSITE

Copyright 2022, Lakes Online
Privacy    |    Legal